| time (UTC) | temp F | wind direction | speed MPH | gust MPH | rain 1hr in | rain 24hr in | rain mn in | humidity % | barometer mb |
| 20260510192026 | 81 | 135 | 8.0 | 12.0 | 0.00 | 0.00 | 0.00 | 45 | 1011.2 |
| 20260510191037 | 82 | 140 | 4.0 | 11.0 | 0.00 | 0.00 | 0.00 | 44 | 1011.2 |
| 20260510190027 | 83 | 204 | 3.0 | 9.0 | 0.00 | 0.00 | 0.00 | 41 | 1011.3 |
| 20260510185038 | 83 | 265 | 3.0 | 9.0 | 0.00 | 0.00 | 0.00 | 42 | 1011.4 |
| 20260510184025 | 83 | 200 | 1.0 | 8.0 | 0.00 | 0.00 | 0.00 | 41 | 1011.3 |
| 20260510183033 | 83 | 240 | 1.0 | 4.0 | 0.00 | 0.00 | 0.00 | 43 | 1011.2 |
| 20260510182039 | 82 | 249 | 3.0 | 12.0 | 0.00 | 0.00 | 0.00 | 42 | 1011.5 |
| 20260510181030 | 82 | 153 | 2.0 | 7.0 | 0.00 | 0.00 | 0.00 | 41 | 1011.7 |
| 20260510180022 | 82 | 284 | 4.0 | 9.0 | 0.00 | 0.00 | 0.00 | 45 | 1011.7 |
| 20260510175028 | 82 | 238 | 1.0 | 6.0 | 0.00 | 0.00 | 0.00 | 42 | 1011.7 |
| 20260510174019 | 82 | 84 | 1.0 | 9.0 | 0.00 | 0.00 | 0.00 | 43 | 1011.5 |
| 20260510173051 | 81 | 119 | 2.0 | 5.0 | 0.00 | 0.00 | 0.00 | 46 | 1011.7 |
| 20260510172033 | 81 | 103 | 4.0 | 7.0 | 0.00 | 0.00 | 0.00 | 45 | 1012.0 |
| 20260510171020 | 81 | 247 | 4.0 | 9.0 | 0.00 | 0.00 | 0.00 | 45 | 1012.0 |
| 20260510170048 | 81 | 267 | 0.0 | 6.0 | 0.00 | 0.00 | 0.00 | 48 | 1012.0 |
| 20260510165019 | 80 | 126 | 2.0 | 6.0 | 0.00 | 0.00 | 0.00 | 46 | 1012.0 |
| 20260510164027 | 79 | 263 | 4.0 | 6.0 | 0.00 | 0.00 | 0.00 | 49 | 1012.1 |
| 20260510163055 | 79 | 304 | 5.0 | 7.0 | 0.00 | 0.00 | 0.00 | 47 | 1012.3 |
| 20260510162041 | 79 | 282 | 5.0 | 10.0 | 0.00 | 0.00 | 0.00 | 47 | 1012.5 |
| 20260510161028 | 79 | 233 | 3.0 | 6.0 | 0.00 | 0.00 | 0.00 | 47 | 1012.4 |
| 20260510160021 | 78 | 105 | 2.0 | 7.0 | 0.00 | 0.00 | 0.00 | 45 | 1012.5 |
| 20260510155031 | 78 | 275 | 4.0 | 8.0 | 0.00 | 0.00 | 0.00 | 47 | 1012.4 |
| 20260510154021 | 78 | 244 | 1.0 | 6.0 | 0.00 | 0.00 | 0.00 | 47 | 1012.5 |
| 20260510153029 | 77 | 126 | 3.0 | 6.0 | 0.00 | 0.00 | 0.00 | 48 | 1012.4 |
| 20260510152019 | 77 | 121 | 3.0 | 6.0 | 0.00 | 0.00 | 0.00 | 51 | 1012.6 |
| 20260510151046 | 76 | 101 | 3.0 | 8.0 | 0.00 | 0.00 | 0.00 | 53 | 1012.5 |
| 20260510150033 | 75 | 250 | 1.0 | 6.0 | 0.00 | 0.00 | 0.00 | 57 | 1012.4 |
| 20260510145042 | 74 | 209 | 4.0 | 7.0 | 0.00 | 0.00 | 0.00 | 57 | 1012.4 |
| 20260510144032 | 73 | 202 | 2.0 | 6.0 | 0.00 | 0.00 | 0.00 | 59 | 1012.4 |
| 20260510143038 | 73 | 220 | 4.0 | 6.0 | 0.00 | 0.00 | 0.00 | 63 | 1012.2 |
| 20260510142025 | 73 | 163 | 3.0 | 5.0 | 0.00 | 0.00 | 0.00 | 70 | 1012.2 |
| 20260510141032 | 72 | 209 | 1.0 | 5.0 | 0.00 | 0.00 | 0.00 | 72 | 1012.1 |
| 20260510140025 | 72 | 266 | 3.0 | 5.0 | 0.00 | 0.00 | 0.00 | 72 | 1012.0 |
| 20260510135015 | 71 | 285 | 2.0 | 4.0 | 0.00 | 0.00 | 0.00 | 72 | 1011.9 |
| 20260510134046 | 71 | 181 | 2.0 | 3.0 | 0.00 | 0.00 | 0.00 | 69 | 1011.9 |
| 20260510133034 | 71 | 61 | 0.0 | 3.0 | 0.00 | 0.00 | 0.00 | 72 | 1011.9 |
| 20260510132058 | 69 | 205 | 1.0 | 4.0 | 0.00 | 0.00 | 0.00 | 75 | 1012.0 |
| 20260510131049 | 68 | 267 | 0.0 | 3.0 | 0.00 | 0.00 | 0.00 | 78 | 1012.1 |
| 20260510130038 | 67 | 267 | 0.0 | 3.0 | 0.00 | 0.00 | 0.00 | 79 | 1011.8 |
| 20260510125043 | 65 | 288 | 1.0 | 3.0 | 0.00 | 0.00 | 0.00 | 80 | 1011.9 |
| 20260510124034 | 65 | 293 | 3.0 | 5.0 | 0.00 | 0.00 | 0.00 | 80 | 1012.0 |
| 20260510123027 | 64 | 269 | 4.0 | 5.0 | 0.00 | 0.00 | 0.00 | 83 | 1012.0 |
| 20260510122038 | 62 | 270 | 2.0 | 4.0 | 0.00 | 0.00 | 0.00 | 87 | 1011.9 |
| 20260510121025 | 62 | 254 | 2.0 | 4.0 | 0.00 | 0.00 | 0.00 | 91 | 1011.6 |
| 20260510120035 | 61 | 224 | 0.0 | 2.0 | 0.00 | 0.00 | 0.00 | 93 | 1011.6 |
| 20260510115025 | 61 | 224 | 0.0 | 1.0 | 0.00 | 0.00 | 0.00 | 95 | 1011.3 |
| 20260510114034 | 59 | 224 | 0.0 | 0.0 | 0.00 | 0.00 | 0.00 | 96 | 1011.2 |
| 20260510113021 | 59 | 224 | 0.0 | 1.0 | 0.00 | 0.00 | 0.00 | 95 | 1011.2 |
| 20260510112029 | 58 | 246 | 0.0 | 0.0 | 0.00 | 0.00 | 0.00 | 95 | 1011.1 |
| 20260510111020 | 57 | 281 | 0.0 | 0.0 | 0.00 | 0.00 | 0.00 | 96 | 1011.1 |
| 20260510110029 | 56 | 281 | 0.0 | 0.0 | 0.00 | 0.00 | 0.00 | 94 | 1010.9 |
| 20260510105036 | 56 | 281 | 0.0 | 0.0 | 0.00 | 0.00 | 0.00 | 95 | 1010.7 |
| 20260510104027 | 55 | 281 | 0.0 | 0.0 | 0.00 | 0.00 | 0.00 | 95 | 1010.6 |
| 20260510103035 | 55 | 281 | 0.0 | 0.0 | 0.00 | 0.00 | 0.00 | 94 | 1010.6 |
| 20260510102022 | 55 | 281 | 0.0 | 0.0 | 0.00 | 0.00 | 0.00 | 94 | 1010.4 |
| 20260510101033 | 55 | 281 | 0.0 | 0.0 | 0.00 | 0.00 | 0.00 | 95 | 1010.4 |
| 20260510100024 | 55 | 281 | 0.0 | 0.0 | 0.00 | 0.00 | 0.00 | 93 | 1010.2 |
| 20260510095031 | 56 | 281 | 0.0 | 0.0 | 0.00 | 0.00 | 0.00 | 94 | 1010.0 |
| 20260510094021 | 56 | 281 | 0.0 | 0.0 | 0.00 | 0.00 | 0.00 | 94 | 1009.9 |
| 20260510093029 | 56 | 281 | 0.0 | 0.0 | 0.00 | 0.00 | 0.00 | 94 | 1009.8 |
| 20260510092022 | 56 | 281 | 0.0 | 0.0 | 0.00 | 0.00 | 0.00 | 93 | 1009.6 |
| 20260510091048 | 56 | 273 | 0.0 | 0.0 | 0.00 | 0.00 | 0.00 | 93 | 1009.5 |
| 20260510090036 | 57 | 273 | 0.0 | 1.0 | 0.00 | 0.00 | 0.00 | 94 | 1009.6 |
| 20260510085044 | 57 | 273 | 0.0 | 0.0 | 0.00 | 0.00 | 0.00 | 94 | 1009.4 |
| 20260510084033 | 57 | 286 | 0.0 | 1.0 | 0.00 | 0.00 | 0.00 | 95 | 1009.2 |
| 20260510083021 | 56 | 223 | 0.0 | 0.0 | 0.00 | 0.00 | 0.00 | 95 | 1009.2 |
| 20260510082047 | 55 | 190 | 0.0 | 0.0 | 0.00 | 0.00 | 0.00 | 94 | 1009.1 |
| 20260510081033 | 55 | 190 | 0.0 | 0.0 | 0.00 | 0.00 | 0.00 | 94 | 1009.3 |
| 20260510080043 | 56 | 190 | 0.0 | 0.0 | 0.00 | 0.00 | 0.00 | 94 | 1009.2 |
| 20260510075055 | 56 | 190 | 0.0 | 0.0 | 0.00 | 0.00 | 0.00 | 93 | 1009.1 |
| 20260510074023 | 56 | 190 | 0.0 | 0.0 | 0.00 | 0.00 | 0.00 | 94 | 1008.9 |
| 20260510073032 | 56 | 190 | 0.0 | 0.0 | 0.00 | 0.00 | 0.00 | 93 | 1008.9 |
| 20260510072038 | 56 | 190 | 0.0 | 0.0 | 0.00 | 0.00 | 0.00 | 93 | 1008.8 |
| 20260510071029 | 56 | 190 | 0.0 | 0.0 | 0.00 | 0.00 | 0.00 | 94 | 1009.0 |
| 20260510070017 | 56 | 190 | 0.0 | 1.0 | 0.00 | 0.00 | 0.00 | 94 | 1008.9 |
| 20260510065025 | 55 | 101 | 0.0 | 0.0 | 0.00 | 0.00 | 0.00 | 93 | 1008.9 |
| 20260510064018 | 55 | 101 | 0.0 | 0.0 | 0.00 | 0.00 | 0.00 | 92 | 1008.9 |
| 20260510063046 | 56 | 101 | 0.0 | 0.0 | 0.00 | 0.00 | 0.00 | 92 | 1009.0 |
| 20260510062032 | 56 | 101 | 0.0 | 0.0 | 0.00 | 0.00 | 0.00 | 92 | 1008.9 |
| 20260510061058 | 56 | 101 | 0.0 | 0.0 | 0.00 | 0.00 | 0.00 | 92 | 1008.8 |
| 20260510060025 | 56 | 101 | 0.0 | 2.0 | 0.00 | 0.00 | 0.00 | 92 | 1008.8 |
| 20260510055035 | 56 | 101 | 0.0 | 1.0 | 0.00 | 0.00 | 0.00 | 92 | 1008.9 |
| 20260510054024 | 56 | 101 | 0.0 | 1.0 | 0.00 | 0.00 | 0.00 | 92 | 1008.8 |
| 20260510053033 | 56 | 101 | 0.0 | 1.0 | 0.00 | 0.00 | 0.00 | 91 | 1008.8 |
| 20260510052019 | 56 | 101 | 0.0 | 0.0 | 0.00 | 0.00 | 0.00 | 91 | 1008.9 |
| 20260510051033 | 57 | 101 | 0.0 | 0.0 | 0.00 | 0.00 | 0.00 | 91 | 1008.9 |
| 20260510050042 | 57 | 101 | 0.0 | 1.0 | 0.00 | 0.00 | 0.00 | 92 | 1008.9 |
| 20260510045029 | 57 | 101 | 0.0 | 1.0 | 0.00 | 0.00 | 0.00 | 92 | 1008.9 |
| 20260510044056 | 56 | 101 | 1.0 | 2.0 | 0.00 | 0.00 | 0.00 | 92 | 1008.8 |
| 20260510043027 | 56 | 101 | 0.0 | 0.0 | 0.00 | 0.00 | 0.00 | 91 | 1008.9 |
| 20260510042033 | 56 | 101 | 1.0 | 2.0 | 0.00 | 0.00 | 0.00 | 92 | 1008.8 |
| 20260510041021 | 56 | 101 | 0.0 | 0.0 | 0.00 | 0.00 | 0.00 | 91 | 1008.8 |
| 20260510040032 | 56 | 101 | 0.0 | 0.0 | 0.00 | 0.00 | 0.00 | 90 | 1008.8 |
| 20260510035023 | 56 | 101 | 0.0 | 0.0 | 0.00 | 0.00 | 0.00 | 91 | 1008.7 |
| 20260510034032 | 56 | 101 | 0.0 | 1.0 | 0.00 | 0.00 | 0.00 | 91 | 1008.8 |
| 20260510033020 | 56 | 101 | 0.0 | 1.0 | 0.00 | 0.00 | 0.00 | 90 | 1008.6 |
| 20260510032026 | 56 | 101 | 0.0 | 0.0 | 0.00 | 0.00 | 0.00 | 89 | 1008.6 |
| 20260510031041 | 57 | 101 | 0.0 | 0.0 | 0.00 | 0.00 | 0.00 | 89 | 1008.5 |
| 20260510030028 | 57 | 101 | 0.0 | 1.0 | 0.00 | 0.00 | 0.00 | 89 | 1008.4 |
| 20260510025037 | 58 | 101 | 0.0 | 0.0 | 0.00 | 0.00 | 0.00 | 89 | 1008.3 |
| 20260510024023 | 58 | 101 | 0.0 | 1.0 | 0.00 | 0.00 | 0.00 | 89 | 1008.3 |
| 20260510023037 | 58 | 101 | 0.0 | 1.0 | 0.00 | 0.00 | 0.00 | 89 | 1008.1 |
| 20260510022023 | 58 | 101 | 0.0 | 1.0 | 0.00 | 0.00 | 0.00 | 88 | 1008.0 |
| 20260510021050 | 59 | 101 | 0.0 | 1.0 | 0.00 | 0.00 | 0.00 | 88 | 1008.0 |
| 20260510020036 | 59 | 101 | 0.0 | 1.0 | 0.00 | 0.00 | 0.00 | 88 | 1007.8 |
| 20260510015027 | 59 | 101 | 0.0 | 0.0 | 0.00 | 0.00 | 0.00 | 86 | 1007.7 |
| 20260510014035 | 60 | 101 | 0.0 | 1.0 | 0.00 | 0.00 | 0.00 | 85 | 1007.8 |
| 20260510013025 | 60 | 101 | 0.0 | 1.0 | 0.00 | 0.00 | 0.00 | 85 | 1007.7 |
| 20260510012032 | 61 | 101 | 0.0 | 0.0 | 0.00 | 0.00 | 0.00 | 85 | 1007.6 |
| 20260510011025 | 61 | 101 | 0.0 | 0.0 | 0.00 | 0.00 | 0.00 | 84 | 1007.6 |
| 20260510010034 | 62 | 101 | 0.0 | 1.0 | 0.00 | 0.00 | 0.00 | 83 | 1007.4 |
| 20260510005022 | 63 | 101 | 0.0 | 1.0 | 0.00 | 0.00 | 0.00 | 82 | 1007.2 |
| 20260510004049 | 64 | 101 | 0.0 | 1.0 | 0.00 | 0.00 | 0.00 | 81 | 1007.2 |
| 20260510003023 | 64 | 101 | 0.0 | 2.0 | 0.00 | 0.00 | 0.00 | 79 | 1007.1 |
| 20260510002033 | 65 | 101 | 0.0 | 1.0 | 0.00 | 0.00 | 0.00 | 78 | 1007.1 |
| 20260510001020 | 66 | 101 | 0.0 | 2.0 | 0.00 | 0.00 | 0.00 | 76 | 1006.9 |
| 20260510000028 | 67 | 101 | 0.0 | 2.0 | 0.00 | 0.00 | 0.00 | 74 | 1006.9 |
| 20260509235018 | 68 | 101 | 0.0 | 1.0 | 0.00 | 0.00 | 0.00 | 74 | 1006.8 |
| 20260509234029 | 69 | 101 | 0.0 | 1.0 | 0.00 | 0.00 | 0.00 | 72 | 1006.7 |
| 20260509233037 | 70 | 101 | 1.0 | 3.0 | 0.00 | 0.00 | 0.00 | 70 | 1006.7 |
| 20260509232023 | 71 | 98 | 0.0 | 3.0 | 0.00 | 0.00 | 0.00 | 69 | 1006.7 |
| 20260509231035 | 71 | 98 | 1.0 | 3.0 | 0.00 | 0.00 | 0.00 | 68 | 1006.6 |
| 20260509230027 | 71 | 96 | 2.0 | 3.0 | 0.00 | 0.00 | 0.00 | 68 | 1006.6 |
| 20260509225034 | 71 | 131 | 1.0 | 5.0 | 0.00 | 0.00 | 0.00 | 68 | 1006.6 |
| 20260509224025 | 71 | 119 | 2.0 | 5.0 | 0.00 | 0.00 | 0.00 | 67 | 1006.6 |
| 20260509223033 | 71 | 87 | 2.0 | 5.0 | 0.00 | 0.00 | 0.00 | 67 | 1006.8 |
| 20260509222036 | 72 | 120 | 3.0 | 6.0 | 0.00 | 0.00 | 0.00 | 64 | 1006.8 |
| 20260509221038 | 73 | 110 | 3.0 | 7.0 | 0.00 | 0.00 | 0.00 | 63 | 1006.7 |
| 20260509220026 | 73 | 123 | 3.0 | 7.0 | 0.00 | 0.00 | 0.00 | 63 | 1007.0 |
| 20260509215037 | 73 | 144 | 4.0 | 6.0 | 0.00 | 0.00 | 0.00 | 64 | 1006.9 |
| 20260509214024 | 73 | 137 | 4.0 | 9.0 | 0.00 | 0.00 | 0.00 | 64 | 1006.7 |
| 20260509213054 | 73 | 149 | 3.0 | 9.0 | 0.00 | 0.00 | 0.00 | 64 | 1006.7 |
| 20260509212059 | 73 | 100 | 5.0 | 10.0 | 0.00 | 0.00 | 0.00 | 63 | 1006.6 |
| 20260509211029 | 75 | 98 | 6.0 | 10.0 | 0.00 | 0.00 | 0.00 | 60 | 1006.6 |
| 20260509210021 | 76 | 193 | 2.0 | 5.0 | 0.00 | 0.00 | 0.00 | 53 | 1006.4 |
| 20260509205050 | 75 | 243 | 1.0 | 4.0 | 0.00 | 0.00 | 0.00 | 57 | 1006.5 |
| 20260509204034 | 76 | 282 | 3.0 | 6.0 | 0.00 | 0.00 | 0.00 | 52 | 1006.5 |
| 20260509203026 | 77 | 266 | 3.0 | 5.0 | 0.00 | 0.00 | 0.00 | 51 | 1006.4 |
| 20260509202053 | 76 | 279 | 0.0 | 2.0 | 0.00 | 0.00 | 0.00 | 53 | 1006.6 |
| 20260509201059 | 73 | 229 | 0.0 | 2.0 | 0.00 | 0.00 | 0.00 | 58 | 1006.8 |
| 20260509200100 | 73 | 229 | 0.0 | 3.0 | 0.00 | 0.00 | 0.00 | 56 | 1006.9 |
| 20260509195035 | 73 | 229 | 0.0 | 4.0 | 0.00 | 0.00 | 0.00 | 54 | 1006.9 |
| 20260509194039 | 73 | 234 | 0.0 | 5.0 | 0.00 | 0.00 | 0.00 | 57 | 1007.0 |
| 20260509193032 | 74 | 190 | 1.0 | 4.0 | 0.00 | 0.00 | 0.00 | 54 | 1007.2 |